TITAN 3C TRANSTAGE DEB, 59979

Orbit data source: Space-Track

TITAN 3C TRANSTAGE DEB, 59979 is space debris in GEO originally from a launch on Thu, 26 Sep 1968 UTC launched from the Air Force Eastern Test Range (AFETR). Debris objects in space refer to the collection of defunct objects orbiting the Earth. Examples of debris include non-operational satellites, rocket bodies, and fragments generated from explosions, collisions, or faulty payload assembly.

Not visible in the next 10 days
Identifier
59979, 1968-081AM
Orbit
GEO
Country
Flag of USUS
Related business
Manufacturer
Unknown
Mission
Spacecraft
Bus & Motor
Unknown
Mass
Unknown
Launch date (UTC)
1968-09-26 (57 years ago)
Launch vehicle
Unknown
Launch site
Air Force Eastern Test Range (AFETR)
Object type
Payload
Rocket body
Debris
Shape & HBR
Unknown
Radar Cross Section
RCS unknown

Expand to show TLE details & history
Last TLE update: 2 weeks ago

TLE from 2 weeks ago
0 TITAN 3C TRANSTAGE DEB
1 59979U 68081AM  25230.51514111 -.00000152  00000-0  00000-0 0  9992
2 59979   1.9321  66.0874 0046007 143.7434 216.8958  1.03318186 57957
Epoch: 2025-08-18T12:21Z
TLE epoch observation values (Epoch: 2025-08-18T12:21:48.191Z)
Latitude
0.00001°
Longitude
-86.15078°
Altitude
35,104.635 km
Speed
3.094 km/s
True Right ascension
04h 25m 40s
True Declination
0° 00' 00"
Sunlit
Object was in daylight at epoch
Visualization orbit readout
Latitude
Unknown
Longitude
Unknown
Altitude
Unknown
Speed
Unknown
Apparent Right ascension
Unknown
Apparent Declination
Unknown
Sunlit
N/A
Visualization observer readout
Local Sidereal Time
17:14:14
Azimuth
Unknown
Elevation
Unknown
Doppler factor
Unknown
Orbital elements
Apogee altitude
35,144.881 km
Perigee altitude
34,764.561 km
Semi-major axis
41,332.858 km
Eccentricity
0.0046
Inclination
1.9321°
RAAN
66.0874°
Arg. of periapsis
143.7434°
True anomaly
216.58074°
Mean anomaly
216.8958°
Eccentric anomaly
216.73812°
Mean motion
0.25829 °/min
Orbital period
1,393.81 mins
BSTAR
0
Loading maneuver chart data...
Computing Atmospheric mass density...

Documentation

Showing up to 5 results
|